Chanute, KS

9:23 AM CDT on July 27, 2017 (GMT -0500)
Chanute Martin Johnson

Weather History for KCNU - January, 2013

Change the Weather History Date:

Saturday, January 26, 2013

  Actual Average Record
Temperature  
Mean Temperature 46 °F 33 °F  
Max Temperature 60 °F 43 °F 73 °F (1911)
Min Temperature 32 °F 23 °F -4 °F (1963)
Degree Days  
Heating Degree Days 19 32  
Month to date heating degree days 785 852  
Since 1 July heating degree days 2188 2645  
Cooling Degree Days 0 0  
Month to date cooling degree days 0 0  
Year to date cooling degree days 0 0  
Moisture  
Dew Point 24 °F    
Average Humidity 48    
Maximum Humidity 75    
Minimum Humidity 21    
Precipitation  
Precipitation T in 0.05 in 1.30 in (1916)
Month to date precipitation 0.40 1.03  
Year to date precipitation 0.40 1.03  
Sea Level Pressure  
Sea Level Pressure 30.19 in    
Wind  
Wind Speed 8 mph (SSE)    
Max Wind Speed 17 mph    
Max Gust Speed 22 mph    
Visibility 10 miles    
Events Rain    
T = Trace of Precipitation, MM = Missing Value Source: NWS Daily Summary

Daily Weather History Graph

Daily Weather History Graph

Search for Another Location

Airport or City:

Trip Planner

Search our weather history database for the weather conditions in past years. The results will help you decide how hot, cold, wet, or windy it might be!

Date:

Astronomy

Jan. 26, 2013 Rise Set
Actual Time 7:30 AM CST 5:39 PM CST
Civil Twilight 7:02 AM CST 6:07 PM CST
Nautical Twilight 6:30 AM CST 6:39 PM CST
Astronomical Twilight 5:59 AM CST 7:10 PM CST
Moon 5:34 PM CST (1/26) 6:49 AM CST (1/26)
Length of Visible Light 11h 05m
Length of Day
10h 09m
Full, 100% of the Moon is Illuminated
Jan 26
Full
Jan 26
Full
Feb 3
Last Quarter
Feb 10
New
Feb 17
First Quarter

Hourly Weather History & Observations

Time (CST) Temp. Windchill Dew Point Humidity Pressure Visibility Wind Dir Wind Speed Gust Speed Precip Events Conditions
12:52 AM 34.0 °F 31.0 °F 26.1 °F 73% 30.27 in 10.0 mi SSW 3.5 mph - N/A   Clear
1:52 AM 37.0 °F - 24.1 °F 59% 30.26 in 10.0 mi Calm Calm - N/A   Clear
2:52 AM 35.1 °F - 25.0 °F 67% 30.27 in 10.0 mi Calm Calm - N/A   Clear
3:52 AM 35.1 °F - 25.0 °F 67% 30.26 in 10.0 mi Calm Calm - N/A   Clear
4:52 AM 33.1 °F - 26.1 °F 75% 30.25 in 10.0 mi Calm Calm - N/A   Clear
5:52 AM 35.1 °F - 27.0 °F 72% 30.26 in 10.0 mi Calm Calm - N/A   Clear
6:52 AM 33.1 °F 30.0 °F 25.0 °F 72% 30.27 in 9.0 mi East 3.5 mph - N/A   Clear
7:52 AM 32.0 °F 27.5 °F 25.0 °F 75% 30.27 in 10.0 mi ESE 4.6 mph - N/A   Clear
8:52 AM 39.9 °F 35.1 °F 26.1 °F 58% 30.27 in 10.0 mi ESE 6.9 mph - N/A   Clear
9:52 AM 46.0 °F 40.6 °F 24.1 °F 42% 30.29 in 10.0 mi ESE 11.5 mph - N/A   Clear
10:52 AM 51.1 °F - 21.0 °F 31% 30.29 in 10.0 mi SE 15.0 mph - N/A   Clear
11:52 AM 55.0 °F - 21.0 °F 27% 30.25 in 10.0 mi SSE 15.0 mph - N/A   Clear
12:52 PM 57.9 °F - 18.0 °F 21% 30.20 in 10.0 mi SSE 16.1 mph - N/A   Clear
1:52 PM 59.0 °F - 19.9 °F 22% 30.17 in 10.0 mi SSE 13.8 mph - N/A   Clear
2:52 PM 60.1 °F - 21.0 °F 22% 30.14 in 10.0 mi SSE 9.2 mph - N/A   Clear
3:52 PM 59.0 °F - 19.9 °F 22% 30.13 in 10.0 mi SSE 12.7 mph - N/A   Clear
4:52 PM 55.0 °F - 21.9 °F 28% 30.13 in 10.0 mi South 9.2 mph - N/A   Clear
5:52 PM 48.0 °F - 23.0 °F 37% 30.13 in 10.0 mi South 6.9 mph - N/A   Scattered Clouds
6:52 PM 46.9 °F - 24.1 °F 41% 30.14 in 10.0 mi South 8.1 mph - N/A   Mostly Cloudy
7:52 PM 45.0 °F 41.2 °F 25.0 °F 46% 30.14 in 10.0 mi South 6.9 mph - N/A   Scattered Clouds
8:52 PM 46.9 °F - 25.0 °F 42% 30.11 in 10.0 mi SSE 6.9 mph - N/A   Overcast
9:30 PM 48.2 °F - 21.2 °F 34% 30.10 in 10.0 mi SSE 9.2 mph - N/A   Overcast
9:52 PM 48.9 °F - 23.0 °F 36% 30.10 in 10.0 mi SSE 8.1 mph - N/A   Overcast
10:52 PM 46.9 °F - 28.0 °F 48% 30.09 in 10.0 mi South 12.7 mph - 0.00 in Rain Light Rain
11:00 PM 46.4 °F 40.4 °F 28.4 °F 50% 30.08 in 10.0 mi South 13.8 mph - 0.00 in Rain Light Rain
11:31 PM 46.4 °F 41.1 °F 26.6 °F 46% 30.08 in 10.0 mi SSE 11.5 mph - 0.00 in Rain Light Rain
11:52 PM 46.0 °F 40.2 °F 28.0 °F 50% 30.07 in 10.0 mi SSE 12.7 mph - 0.00 in Rain Light Rain